Weather Roundup
Issued by NWS Springfield, MO

Home | Current Version | Previous Version | Text Only | Print | Product List | Glossary On
Versions: 1 2 3 4 5 6 7 8 9 10 11 12 13 14 15 16 17 18 19 20 21 22 23 24 25 26 27 28 29 30 31 32 33 34 35 36 37 38 39 40 41 42 43 44 45 46 47 48 49 50
000
NZUS99 KSGF 240907
HRRSGF

HOURLY WEATHER
NATIONAL WEATHER SERVICE SPRINGFIELD MO
400 AM CDT SAT JUN 24 2017

......SGF CWA......

CITY           SKY/WX    TMP DP  RH WIND       PRES   REMARKS
SPRINGFIELD    CLEAR     61  54  77 N7        30.10R
JOPLIN         CLEAR     62  58  86 NE3       30.11S
WEST PLAINS    PTCLDY    63  54  72 N6        30.09R
ROLLA          CLEAR     59  54  83 W7        30.06R
OSAGE BEACH    CLEAR     62  54  74 NW3       30.09R
BRANSON        CLEAR     61  57  88 CALM      30.11S

......SURROUNDING SGF CWA......

CITY           SKY/WX    TMP DP  RH WIND       PRES   REMARKS
CHANUTE        MOCLDY    62  56  80 N5        30.12S
PARSONS        CLEAR     63  55  75 N3        30.12S
COFFEYVILLE    CLEAR     62  56  80 N5        30.11R
EMPORIA        PTCLDY    58  55  90 NW3       30.14F
GROVE OK       CLEAR     68  55  64 CALM      30.11S
ROGERS AR      CLEAR     63  55  75 NE3       30.12R
SILOAM SPRINGS CLOUDY    64  54  68 NE6       30.09F
HARRISON AR    PTCLDY    62  58  86 NW6       30.09S
NEAR YELLVILLE PTCLDY    66  57  72 N3        30.05S

......KANSAS AND MISSOURI......

CITY           SKY/WX    TMP DP  RH WIND       PRES   REMARKS
KANSAS CTY INT CLEAR     58  55  90 W7        30.12R
DOWNTOWN KC    PTCLDY    64  54  69 NW5       30.11R
COLUMBIA       PTCLDY    60  55  83 W6        30.06S
SEDALIA        PTCLDY    60  57  89 W6        30.10R
ST JOSEPH      CLEAR     56  54  93 CALM      30.13R
ST LOUIS       PTCLDY    66  55  67 NW5       30.01R
SPIRIT OF STL  CLEAR     62  57  83 SW6       30.01S
KIRKSVILLE     CLEAR     59  52  77 NW7       30.06S
WICHITA        CLOUDY    66  55  67 N7        30.14S
TOPEKA         CLEAR     58  58 100 CALM      30.13S
OLATHE         CLEAR     62  53  72 NW6       30.12R

......TENNESSEE......

CITY           SKY/WX    TMP DP  RH WIND       PRES   REMARKS
MEMPHIS        MOCLDY    71  69  93 N5        29.97R
NASHVILLE      MOCLDY    74  67  78 NW6       29.94R

......ARKANSAS.......

CITY           SKY/WX    TMP DP  RH WIND       PRES   REMARKS
FAYETTEVILLE   CLOUDY    63  62  97 CALM      30.10R
FT SMITH       CLOUDY    71  67  87 CALM      30.04R
LITTLE ROCK    CLOUDY    70  69  97 N10       30.02R

......OKLAHOMA.......

CITY           SKY/WX    TMP DP  RH WIND       PRES   REMARKS
TULSA          CLOUDY    70  56  61 VRB5      30.07R
PONCA CITY     CLOUDY    66  55  67 N5        30.11R
MCALESTER      CLOUDY    73  68  84 NE5       30.05R
OKLAHOMA CITY  CLOUDY    72  52  49 NE15      30.10R

......IOWA............

CITY           SKY/WX    TMP DP  RH WIND       PRES   REMARKS
DES MOINES     CLEAR     57  50  77 W6        30.06S
QUAD CITIES    CLEAR     63  53  70 NW14      29.97R

......ILLINOIS........

CITY           SKY/WX    TMP DP  RH WIND       PRES   REMARKS
QUINCY         CLEAR     60  54  80 NW6       30.02R
CHICAGO        CLEAR     63  55  75 W10       29.88R




USA.gov is the U.S. government's official web portal to all federal, state and local government web resources and services.